World > North America > United States > Mississippi

Hourly Splunge, MS Regional Weather

Feedback E-mail the Weather

Quick WX

Splunge, MS Weather Maps

°F °C°F °C
Splunge Weather Map
UTC Time: 6/29/2022, 13:52
Your Time:

Splunge, MS Regional Weather

Expires:202206291400;;384905
ASUS44 KJAN 291310
RWRMS 

MISSISSIPPI HOURLY WEATHER ROUNDUP
NATIONAL WEATHER SERVICE JACKSON MS
800 AM CDT WED JUN 29 2022

NOTE: "FAIR: INDICATES FEW OR NO CLOUDS BELOW 12,000 FEET WITH NO
SIGNIFICANT WEATHER AND/OR OBSTRUCTIONS TO VISIBILITY.


MSZ003>006-009-014>017-022>024-029>033-037>039-291400-
NORTHEAST MISSISSIPPI
  
CITY           SKY/WX    TMP DP  RH WIND       PRES   REMARKS
ABERDEEN       FAIR      77  72  83 CALM      30.18R                  
COLUMBUS AFB   SUNNY     76  69  79 E6        30.14R                  
CORINTH        SUNNY     68  59  73 CALM      30.20R                  
GOLDN TRIANGLE SUNNY     76  71  85 E6        30.17R                  
TUPELO         SUNNY     74  61  63 NE5       30.18R                  
$$


SKY/WX - Weather  TMP - Temperature  DP - Dew Point  RH - Humidity
WIND - Wind Direction/Speed PRES - Barometric Pressure VSB - Visibility
WCI - Wind Chill Index E13G22 Wind - East Wind 13 mph/Gusts of 22 mph

Trending Headlines

Splunge Radar Loop



Splunge Quick Facts


National Two Day Weather Forecast


E-mail the Splunge Weather Forecast

Voice your opinion or tell us about page issues...